Time,TemperatureF,DewpointF,PressureIn,WindDirection,WindDirectionDegrees,WindSpeedMPH,WindSpeedGustMPH,Humidity,HourlyPrecipIn,Conditions,Clouds,dailyrainin,SoftwareType,DateUTC
2013-09-29 00:00:00,59.5,23.2,30.11,South,178,18.0,21.0,24,0.00,,---,0.00,VWS V14.00,2013-09-29 07:00:00,
2013-09-29 00:10:00,59.5,23.2,30.11,SSW,194,10.0,22.0,24,0.00,,---,0.00,VWS V14.00,2013-09-29 07:10:00,
2013-09-29 00:15:00,59.8,23.5,30.11,SSW,199,10.0,26.0,24,0.00,,---,0.00,VWS V14.00,2013-09-29 07:15:00,
2013-09-29 00:20:00,59.9,22.5,30.11,SSW,203,11.0,27.0,24,0.00,,---,0.00,VWS V14.00,2013-09-29 07:20:00,
2013-09-29 00:25:00,59.8,23.5,30.11,SSW,194,14.0,25.0,24,0.00,,---,0.00,VWS V14.00,2013-09-29 07:25:00,
2013-09-29 00:30:00,59.9,22.5,30.10,SSW,198,22.0,32.0,24,0.00,,---,0.00,VWS V14.00,2013-09-29 07:30:00,
2013-09-29 00:35:00,59.9,22.5,30.10,South,182,21.0,29.0,24,0.00,,---,0.00,VWS V14.00,2013-09-29 07:35:00,
2013-09-29 00:40:00,59.8,23.5,30.10,South,188,23.0,29.0,24,0.00,,---,0.00,VWS V14.00,2013-09-29 07:40:00,
2013-09-29 00:45:00,60.0,23.6,30.10,South,181,36.0,36.0,24,0.00,,---,0.00,VWS V14.00,2013-09-29 07:45:00,
2013-09-29 00:50:00,60.0,22.6,30.10,SSW,198,16.0,36.0,24,0.00,,---,0.00,VWS V14.00,2013-09-29 07:50:00,
2013-09-29 00:55:00,59.7,23.4,30.09,SSW,196,23.0,32.0,24,0.00,,---,0.00,VWS V14.00,2013-09-29 07:55:00,
2013-09-29 01:00:00,59.5,23.2,30.09,SSW,195,20.0,27.0,24,0.00,,---,0.00,VWS V14.00,2013-09-29 08:00:00,
2013-09-29 01:05:00,59.4,22.1,30.09,SSW,197,20.0,32.0,24,0.00,,---,0.00,VWS V14.00,2013-09-29 08:05:00,
2013-09-29 01:10:00,59.6,22.3,30.09,South,180,16.0,30.0,24,0.00,,---,0.00,VWS V14.00,2013-09-29 08:10:00,
2013-09-29 01:20:00,59.0,22.8,30.10,SSW,192,10.0,25.0,24,0.00,,---,0.00,VWS V14.00,2013-09-29 08:20:00,
2013-09-29 01:25:00,59.0,22.8,30.10,South,178,22.0,28.0,24,0.00,,---,0.00,VWS V14.00,2013-09-29 08:25:00,
2013-09-29 01:30:00,59.1,22.9,30.10,South,182,19.0,28.0,24,0.00,,---,0.00,VWS V14.00,2013-09-29 08:30:00,
2013-09-29 01:35:00,59.1,22.9,30.10,SSW,198,26.0,27.0,24,0.00,,---,0.00,VWS V14.00,2013-09-29 08:35:00,
2013-09-29 01:40:00,59.3,24.0,30.10,South,188,16.0,26.0,26,0.00,,---,0.00,VWS V14.00,2013-09-29 08:40:00,
2013-09-29 01:45:00,59.4,24.1,30.10,SSW,195,20.0,28.0,26,0.00,,---,0.00,VWS V14.00,2013-09-29 08:45:00,
2013-09-29 01:50:00,59.3,24.0,30.10,South,185,23.0,23.0,26,0.00,,---,0.00,VWS V14.00,2013-09-29 08:50:00,
2013-09-29 01:55:00,59.5,24.1,30.10,South,188,15.0,25.0,26,0.00,,---,0.00,VWS V14.00,2013-09-29 08:55:00,
2013-09-29 02:00:00,59.6,24.2,30.10,South,188,10.0,27.0,26,0.00,,---,0.00,VWS V14.00,2013-09-29 09:00:00,
2013-09-29 02:10:00,59.6,24.2,30.10,SSW,198,16.0,25.0,26,0.00,,---,0.00,VWS V14.00,2013-09-29 09:10:00,
2013-09-29 02:15:00,59.5,24.1,30.10,South,187,16.0,24.0,26,0.00,,---,0.00,VWS V14.00,2013-09-29 09:15:00,
2013-09-29 02:20:00,59.5,24.1,30.10,SSW,194,11.0,25.0,26,0.00,,---,0.00,VWS V14.00,2013-09-29 09:20:00,
2013-09-29 02:25:00,59.2,23.9,30.09,South,180,24.0,27.0,26,0.00,,---,0.00,VWS V14.00,2013-09-29 09:25:00,
2013-09-29 02:30:00,59.0,23.7,30.09,South,186,16.0,24.0,26,0.00,,---,0.00,VWS V14.00,2013-09-29 09:30:00,
2013-09-29 02:35:00,59.1,22.9,30.09,SSW,199,16.0,27.0,24,0.00,,---,0.00,VWS V14.00,2013-09-29 09:35:00,
2013-09-29 02:40:00,59.0,22.8,30.09,South,189,19.0,24.0,24,0.00,,---,0.00,VWS V14.00,2013-09-29 09:40:00,
2013-09-29 02:45:00,59.4,24.1,30.09,SSW,206,22.0,28.0,26,0.00,,---,0.00,VWS V14.00,2013-09-29 09:45:00,
2013-09-29 02:50:00,59.3,24.0,30.09,SSW,200,18.0,29.0,26,0.00,,---,0.00,VWS V14.00,2013-09-29 09:50:00,
2013-09-29 02:55:00,59.3,24.9,30.08,SSW,194,10.0,27.0,26,0.00,,---,0.00,VWS V14.00,2013-09-29 09:55:00,
2013-09-29 03:00:00,59.4,25.0,30.08,SSW,207,15.0,31.0,26,0.00,,---,0.00,VWS V14.00,2013-09-29 10:00:00,
2013-09-29 03:05:00,59.1,24.7,30.08,SSW,202,28.0,28.0,26,0.00,,---,0.00,VWS V14.00,2013-09-29 10:05:00,
2013-09-29 03:10:00,59.1,24.7,30.08,SSW,195,21.0,28.0,26,0.00,,---,0.00,VWS V14.00,2013-09-29 10:10:00,
2013-09-29 03:15:00,59.0,24.6,30.08,SSW,200,23.0,30.0,26,0.00,,---,0.00,VWS V14.00,2013-09-29 10:15:00,
2013-09-29 03:20:00,59.0,24.6,30.08,SSW,198,18.0,27.0,26,0.00,,---,0.00,VWS V14.00,2013-09-29 10:20:00,
2013-09-29 03:25:00,59.0,23.7,30.07,South,187,21.0,29.0,26,0.00,,---,0.00,VWS V14.00,2013-09-29 10:25:00,
2013-09-29 03:30:00,59.0,24.6,30.07,South,181,12.0,29.0,26,0.00,,---,0.00,VWS V14.00,2013-09-29 10:30:00,
2013-09-29 03:35:00,59.0,24.6,30.07,SSW,205,16.0,28.0,26,0.00,,---,0.00,VWS V14.00,2013-09-29 10:35:00,
2013-09-29 03:40:00,59.0,25.5,30.07,SSW,195,13.0,23.0,28,0.00,,---,0.00,VWS V14.00,2013-09-29 10:40:00,
2013-09-29 03:45:00,59.0,25.5,30.07,South,191,18.0,25.0,28,0.00,,---,0.00,VWS V14.00,2013-09-29 10:45:00,
2013-09-29 03:50:00,58.8,25.4,30.07,SSW,199,15.0,25.0,28,0.00,,---,0.00,VWS V14.00,2013-09-29 10:50:00,
2013-09-29 03:55:00,58.7,25.3,30.07,SSW,192,8.0,25.0,28,0.00,,---,0.00,VWS V14.00,2013-09-29 10:55:00,
2013-09-29 04:00:00,58.6,25.2,30.07,SSW,209,21.0,25.0,28,0.00,,---,0.00,VWS V14.00,2013-09-29 11:00:00,
2013-09-29 04:05:00,58.6,26.0,30.07,SSW,196,15.0,25.0,28,0.00,,---,0.00,VWS V14.00,2013-09-29 11:05:00,
2013-09-29 04:10:00,58.6,25.2,30.07,SSW,211,14.0,23.0,28,0.00,,---,0.00,VWS V14.00,2013-09-29 11:10:00,
2013-09-29 04:15:00,58.3,24.9,30.07,SSW,202,15.0,22.0,28,0.00,,---,0.00,VWS V14.00,2013-09-29 11:15:00,
2013-09-29 04:20:00,58.3,24.9,30.06,South,187,16.0,23.0,28,0.00,,---,0.00,VWS V14.00,2013-09-29 11:20:00,
2013-09-29 04:25:00,58.2,24.8,30.06,SSW,196,18.0,26.0,28,0.00,,---,0.00,VWS V14.00,2013-09-29 11:25:00,
2013-09-29 04:30:00,58.2,24.8,30.07,SSW,209,16.0,23.0,28,0.00,,---,0.00,VWS V14.00,2013-09-29 11:30:00,
2013-09-29 04:35:00,58.4,25.0,30.07,SSW,196,18.0,28.0,28,0.00,,---,0.00,VWS V14.00,2013-09-29 11:35:00,
2013-09-29 04:40:00,58.4,25.0,30.06,SSW,199,10.0,26.0,28,0.00,,---,0.00,VWS V14.00,2013-09-29 11:40:00,
2013-09-29 04:45:00,58.3,24.9,30.06,SSW,196,18.0,24.0,28,0.00,,---,0.00,VWS V14.00,2013-09-29 11:45:00,
2013-09-29 04:50:00,58.4,25.0,30.06,SSW,198,7.0,27.0,28,0.00,,---,0.00,VWS V14.00,2013-09-29 11:50:00,
2013-09-29 04:55:00,58.3,24.9,30.06,SSW,196,11.0,32.0,28,0.00,,---,0.00,VWS V14.00,2013-09-29 11:55:00,
2013-09-29 05:00:00,58.4,25.9,30.06,South,187,23.0,23.0,28,0.00,,---,0.00,VWS V14.00,2013-09-29 12:00:00,
2013-09-29 05:05:00,58.4,25.9,30.06,South,188,13.0,24.0,28,0.00,,---,0.00,VWS V14.00,2013-09-29 12:05:00,
2013-09-29 05:10:00,59.0,26.4,30.06,South,185,15.0,27.0,28,0.00,,---,0.00,VWS V14.00,2013-09-29 12:10:00,
2013-09-29 05:15:00,58.5,26.0,30.06,SSW,208,19.0,29.0,28,0.00,,---,0.00,VWS V14.00,2013-09-29 12:15:00,
2013-09-29 05:20:00,58.5,26.0,30.06,SSW,202,14.0,21.0,28,0.00,,---,0.00,VWS V14.00,2013-09-29 12:20:00,
2013-09-29 05:25:00,58.4,25.9,30.06,SSW,209,11.0,25.0,28,0.00,,---,0.00,VWS V14.00,2013-09-29 12:25:00,
2013-09-29 05:30:00,58.7,26.1,30.06,SSW,192,8.0,24.0,28,0.00,,---,0.00,VWS V14.00,2013-09-29 12:30:00,
2013-09-29 05:35:00,58.5,26.0,30.07,SSW,200,14.0,23.0,28,0.00,,---,0.00,VWS V14.00,2013-09-29 12:35:00,
2013-09-29 05:45:00,58.7,26.1,30.07,SSW,205,20.0,25.0,28,0.00,,---,0.00,VWS V14.00,2013-09-29 12:45:00,
2013-09-29 05:55:00,58.5,26.8,30.07,SSW,213,12.0,23.0,30,0.00,,---,0.00,VWS V14.00,2013-09-29 12:55:00,
2013-09-29 06:00:00,58.6,27.7,30.07,South,188,18.0,25.0,30,0.00,,---,0.00,VWS V14.00,2013-09-29 13:00:00,
2013-09-29 06:05:00,58.4,26.7,30.08,SSW,197,13.0,24.0,30,0.00,,---,0.00,VWS V14.00,2013-09-29 13:05:00,
2013-09-29 06:10:00,58.2,26.5,30.07,SSW,213,18.0,24.0,30,0.00,,---,0.00,VWS V14.00,2013-09-29 13:10:00,
2013-09-29 06:20:00,58.0,25.5,30.07,SSW,198,18.0,25.0,28,0.00,,---,0.00,VWS V14.00,2013-09-29 13:20:00,
2013-09-29 06:25:00,57.9,25.4,30.08,SW,214,15.0,29.0,28,0.00,,---,0.00,VWS V14.00,2013-09-29 13:25:00,
2013-09-29 06:35:00,57.8,26.2,30.07,South,186,19.0,24.0,30,0.00,,---,0.00,VWS V14.00,2013-09-29 13:35:00,
2013-09-29 06:45:00,57.7,25.3,30.07,South,188,16.0,26.0,28,0.00,,---,0.00,VWS V14.00,2013-09-29 13:45:00,
2013-09-29 06:50:00,57.6,25.2,30.07,SSW,200,19.0,27.0,28,0.00,,---,0.00,VWS V14.00,2013-09-29 13:50:00,
2013-09-29 06:55:00,57.6,25.2,30.07,South,186,20.0,31.0,28,0.00,,---,0.00,VWS V14.00,2013-09-29 13:55:00,
2013-09-29 07:00:00,57.9,26.3,30.07,SSW,196,20.0,26.0,30,0.00,,---,0.00,VWS V14.00,2013-09-29 14:00:00,
2013-09-29 07:05:00,57.7,25.3,30.07,SSW,211,22.0,29.0,28,0.00,,---,0.00,VWS V14.00,2013-09-29 14:05:00,
2013-09-29 07:10:00,57.6,26.0,30.07,SSW,199,23.0,32.0,30,0.00,,---,0.00,VWS V14.00,2013-09-29 14:10:00,
2013-09-29 07:15:00,57.8,25.4,30.07,South,190,20.0,27.0,28,0.00,,---,0.00,VWS V14.00,2013-09-29 14:15:00,
2013-09-29 07:20:00,57.6,26.0,30.08,SSW,194,21.0,32.0,30,0.00,,---,0.00,VWS V14.00,2013-09-29 14:20:00,
2013-09-29 07:25:00,57.8,26.2,30.08,South,180,13.0,31.0,30,0.00,,---,0.00,VWS V14.00,2013-09-29 14:25:00,
2013-09-29 07:30:00,57.8,26.2,30.08,SSW,208,18.0,30.0,30,0.00,,---,0.00,VWS V14.00,2013-09-29 14:30:00,
2013-09-29 07:40:00,57.9,27.1,30.08,SW,215,12.0,27.0,30,0.00,,---,0.00,VWS V14.00,2013-09-29 14:40:00,
2013-09-29 07:45:00,58.1,26.4,30.08,SW,215,13.0,24.0,30,0.00,,---,0.00,VWS V14.00,2013-09-29 14:45:00,
2013-09-29 07:50:00,58.0,26.4,30.07,South,186,20.0,27.0,30,0.00,,---,0.00,VWS V14.00,2013-09-29 14:50:00,
2013-09-29 07:55:00,57.9,27.1,30.07,SSW,210,20.0,25.0,30,0.00,,---,0.00,VWS V14.00,2013-09-29 14:55:00,
2013-09-29 08:00:00,58.0,26.4,30.07,SSW,196,16.0,27.0,30,0.00,,---,0.00,VWS V14.00,2013-09-29 15:00:00,
2013-09-29 08:05:00,58.0,27.2,30.07,South,190,16.0,28.0,30,0.00,,---,0.00,VWS V14.00,2013-09-29 15:05:00,
2013-09-29 08:10:00,58.1,26.4,30.07,SSW,205,13.0,27.0,30,0.00,,---,0.00,VWS V14.00,2013-09-29 15:10:00,
2013-09-29 08:20:00,58.1,27.2,30.07,South,186,26.0,29.0,30,0.00,,---,0.00,VWS V14.00,2013-09-29 15:20:00,
2013-09-29 08:25:00,58.2,26.5,30.07,SSW,208,20.0,26.0,30,0.00,,---,0.00,VWS V14.00,2013-09-29 15:25:00,
2013-09-29 08:30:00,58.1,26.4,30.07,SW,215,23.0,30.0,30,0.00,,---,0.00,VWS V14.00,2013-09-29 15:30:00,
2013-09-29 08:35:00,58.0,26.4,30.07,SSW,199,21.0,28.0,30,0.00,,---,0.00,VWS V14.00,2013-09-29 15:35:00,
2013-09-29 08:45:00,57.9,26.3,30.07,SSW,203,24.0,32.0,30,0.00,,---,0.00,VWS V14.00,2013-09-29 15:45:00,
2013-09-29 08:50:00,57.8,26.2,30.07,South,184,14.0,30.0,30,0.00,,---,0.00,VWS V14.00,2013-09-29 15:50:00,
2013-09-29 08:55:00,57.7,26.1,30.07,SSW,203,14.0,27.0,30,0.00,,---,0.00,VWS V14.00,2013-09-29 15:55:00,
2013-09-29 09:00:00,58.2,26.5,30.07,SW,223,20.0,28.0,30,0.00,,---,0.00,VWS V14.00,2013-09-29 16:00:00,
2013-09-29 09:10:00,59.7,27.0,30.07,SW,216,13.0,32.0,28,0.00,,---,0.00,VWS V14.00,2013-09-29 16:10:00,
2013-09-29 09:15:00,60.2,27.4,30.08,SSW,203,22.0,29.0,28,0.00,,---,0.00,VWS V14.00,2013-09-29 16:15:00,
2013-09-29 09:25:00,61.5,27.7,30.08,SSW,206,12.0,30.0,28,0.00,,---,0.00,VWS V14.00,2013-09-29 16:25:00,
2013-09-29 09:30:00,61.7,27.0,30.08,SW,221,20.0,31.0,26,0.00,,---,0.00,VWS V14.00,2013-09-29 16:30:00,
2013-09-29 09:40:00,62.4,28.5,30.08,SSW,208,24.0,28.0,28,0.00,,---,0.00,VWS V14.00,2013-09-29 16:40:00,
2013-09-29 09:45:00,62.6,27.7,30.09,SSW,203,14.0,30.0,26,0.00,,---,0.00,VWS V14.00,2013-09-29 16:45:00,
2013-09-29 09:50:00,62.7,27.8,30.08,SSW,194,16.0,25.0,26,0.00,,---,0.00,VWS V14.00,2013-09-29 16:50:00,
2013-09-29 09:55:00,62.8,27.9,30.08,SSW,210,20.0,23.0,26,0.00,,---,0.00,VWS V14.00,2013-09-29 16:55:00,
2013-09-29 10:05:00,63.8,28.8,30.08,SSW,193,20.0,27.0,26,0.00,,---,0.00,VWS V14.00,2013-09-29 17:05:00,
2013-09-29 10:10:00,64.1,29.0,30.08,SSW,204,23.0,25.0,26,0.00,,---,0.00,VWS V14.00,2013-09-29 17:10:00,
2013-09-29 10:15:00,64.5,28.4,30.08,SSW,203,20.0,32.0,26,0.00,,---,0.00,VWS V14.00,2013-09-29 17:15:00,
2013-09-29 10:20:00,64.9,29.7,30.08,SSW,208,14.0,30.0,26,0.00,,---,0.00,VWS V14.00,2013-09-29 17:20:00,
2013-09-29 10:25:00,65.9,29.6,30.08,SSW,207,21.0,32.0,26,0.00,,---,0.00,VWS V14.00,2013-09-29 17:25:00,
2013-09-29 10:30:00,65.5,29.3,30.09,SSW,210,26.0,28.0,26,0.00,,---,0.00,VWS V14.00,2013-09-29 17:30:00,
2013-09-29 10:35:00,65.4,30.1,30.08,SSW,213,15.0,28.0,26,0.00,,---,0.00,VWS V14.00,2013-09-29 17:35:00,
2013-09-29 10:40:00,65.7,29.4,30.08,SSW,203,21.0,29.0,26,0.00,,---,0.00,VWS V14.00,2013-09-29 17:40:00,
2013-09-29 10:50:00,66.5,29.1,30.08,SW,229,23.0,32.0,24,0.00,,---,0.00,VWS V14.00,2013-09-29 17:50:00,
2013-09-29 10:55:00,66.2,28.9,30.08,SSW,213,23.0,35.0,24,0.00,,---,0.00,VWS V14.00,2013-09-29 17:55:00,
2013-09-29 11:00:00,66.4,30.0,30.08,SSW,207,30.0,33.0,26,0.00,,---,0.00,VWS V14.00,2013-09-29 18:00:00,
2013-09-29 11:05:00,66.2,28.9,30.08,SSW,199,15.0,34.0,24,0.00,,---,0.00,VWS V14.00,2013-09-29 18:05:00,
2013-09-29 11:15:00,67.9,30.3,30.09,SW,222,14.0,33.0,24,0.00,,---,0.00,VWS V14.00,2013-09-29 18:15:00,
2013-09-29 11:25:00,67.9,29.3,30.08,SW,221,23.0,27.0,24,0.00,,---,0.00,VWS V14.00,2013-09-29 18:25:00,
2013-09-29 11:30:00,68.3,28.6,30.08,SSW,208,15.0,31.0,22,0.00,,---,0.00,VWS V14.00,2013-09-29 18:30:00,
2013-09-29 11:35:00,68.3,28.6,30.08,SW,227,27.0,32.0,22,0.00,,---,0.00,VWS V14.00,2013-09-29 18:35:00,
2013-09-29 11:45:00,68.6,28.8,30.08,SSW,202,22.0,34.0,22,0.00,,---,0.00,VWS V14.00,2013-09-29 18:45:00,
2013-09-29 11:50:00,68.7,28.9,30.08,WSW,242,21.0,33.0,22,0.00,,---,0.00,VWS V14.00,2013-09-29 18:50:00,
2013-09-29 11:55:00,68.6,29.9,30.07,SSW,208,23.0,31.0,24,0.00,,---,0.00,VWS V14.00,2013-09-29 18:55:00,
2013-09-29 12:05:00,68.3,28.6,30.08,SW,214,27.0,35.0,22,0.00,,---,0.00,VWS V14.00,2013-09-29 19:05:00,
2013-09-29 12:15:00,69.4,29.5,30.08,SW,221,23.0,30.0,22,0.00,,---,0.00,VWS V14.00,2013-09-29 19:15:00,
2013-09-29 12:20:00,69.9,29.9,30.08,SSW,195,23.0,36.0,22,0.00,,---,0.00,VWS V14.00,2013-09-29 19:20:00,
2013-09-29 12:25:00,69.5,29.6,30.07,SSW,213,16.0,40.0,22,0.00,,---,0.00,VWS V14.00,2013-09-29 19:25:00,
2013-09-29 12:30:00,69.3,29.4,30.08,SW,227,25.0,32.0,22,0.00,,---,0.00,VWS V14.00,2013-09-29 19:30:00,
2013-09-29 12:40:00,69.0,29.1,30.07,SW,230,16.0,29.0,22,0.00,,---,0.00,VWS V14.00,2013-09-29 19:40:00,
2013-09-29 12:45:00,68.8,29.0,30.07,SW,234,30.0,33.0,22,0.00,,---,0.00,VWS V14.00,2013-09-29 19:45:00,
2013-09-29 12:50:00,69.3,29.4,30.08,SW,227,26.0,34.0,22,0.00,,---,0.00,VWS V14.00,2013-09-29 19:50:00,
2013-09-29 12:55:00,69.6,30.7,30.08,SW,215,22.0,32.0,24,0.00,,---,0.00,VWS V14.00,2013-09-29 19:55:00,
2013-09-29 13:00:00,70.1,30.1,30.07,WSW,237,24.0,34.0,22,0.00,,---,0.00,VWS V14.00,2013-09-29 20:00:00,
2013-09-29 13:05:00,70.1,30.1,30.07,SW,228,24.0,32.0,22,0.00,,---,0.00,VWS V14.00,2013-09-29 20:05:00,
2013-09-29 13:10:00,69.8,29.8,30.07,SSW,210,14.0,35.0,22,0.00,,---,0.00,VWS V14.00,2013-09-29 20:10:00,
2013-09-29 13:15:00,70.0,30.0,30.07,SW,219,19.0,27.0,22,0.00,,---,0.00,VWS V14.00,2013-09-29 20:15:00,
2013-09-29 13:25:00,69.5,29.6,30.07,SW,236,18.0,26.0,22,0.00,,---,0.00,VWS V14.00,2013-09-29 20:25:00,
2013-09-29 13:30:00,69.9,29.9,30.06,SW,223,30.0,30.0,22,0.00,,---,0.00,VWS V14.00,2013-09-29 20:30:00,
2013-09-29 13:35:00,70.1,30.1,30.06,SW,221,31.0,32.0,22,0.00,,---,0.00,VWS V14.00,2013-09-29 20:35:00,
2013-09-29 13:45:00,71.3,30.0,30.06,WSW,254,26.0,26.0,22,0.00,,---,0.00,VWS V14.00,2013-09-29 20:45:00,
2013-09-29 13:55:00,70.5,29.3,30.06,WSW,240,16.0,29.0,22,0.00,,---,0.00,VWS V14.00,2013-09-29 20:55:00,
2013-09-29 14:00:00,69.8,29.8,30.06,SW,224,19.0,30.0,22,0.00,,---,0.00,VWS V14.00,2013-09-29 21:00:00,
2013-09-29 14:05:00,69.7,28.6,30.06,SW,225,25.0,31.0,22,0.00,,---,0.00,VWS V14.00,2013-09-29 21:05:00,
2013-09-29 14:10:00,69.4,29.5,30.06,SW,232,14.0,33.0,22,0.00,,---,0.00,VWS V14.00,2013-09-29 21:10:00,
2013-09-29 14:15:00,69.3,29.4,30.06,SSW,211,22.0,29.0,22,0.00,,---,0.00,VWS V14.00,2013-09-29 21:15:00,
2013-09-29 14:25:00,68.4,28.6,30.06,SW,225,19.0,38.0,22,0.00,,---,0.00,VWS V14.00,2013-09-29 21:25:00,
2013-09-29 14:30:00,68.5,28.7,30.05,SSW,211,23.0,28.0,22,0.00,,---,0.00,VWS V14.00,2013-09-29 21:30:00,
2013-09-29 14:40:00,68.0,28.3,30.06,SW,232,25.0,28.0,22,0.00,,---,0.00,VWS V14.00,2013-09-29 21:40:00,
2013-09-29 14:45:00,68.2,28.5,30.06,SW,226,13.0,31.0,22,0.00,,---,0.00,VWS V14.00,2013-09-29 21:45:00,
2013-09-29 14:50:00,68.0,28.3,30.05,SW,223,24.0,37.0,22,0.00,,---,0.00,VWS V14.00,2013-09-29 21:50:00,
2013-09-29 14:55:00,68.3,29.6,30.06,SW,215,15.0,32.0,24,0.00,,---,0.00,VWS V14.00,2013-09-29 21:55:00,
2013-09-29 15:00:00,68.1,28.4,30.05,WSW,244,29.0,31.0,22,0.00,,---,0.00,VWS V14.00,2013-09-29 22:00:00,
2013-09-29 15:05:00,68.3,28.6,30.05,SW,214,21.0,33.0,22,0.00,,---,0.00,VWS V14.00,2013-09-29 22:05:00,
2013-09-29 15:10:00,68.4,28.6,30.05,SW,226,23.0,36.0,22,0.00,,---,0.00,VWS V14.00,2013-09-29 22:10:00,
2013-09-29 15:20:00,69.5,27.3,30.05,SSW,213,23.0,31.0,20,0.00,,---,0.00,VWS V14.00,2013-09-29 22:20:00,
2013-09-29 15:25:00,70.1,29.0,30.05,SSW,210,14.0,28.0,22,0.00,,---,0.00,VWS V14.00,2013-09-29 22:25:00,
2013-09-29 15:30:00,70.1,27.8,30.05,SW,236,12.0,32.0,20,0.00,,---,0.00,VWS V14.00,2013-09-29 22:30:00,
2013-09-29 15:35:00,69.7,27.5,30.05,SSW,203,23.0,35.0,20,0.00,,---,0.00,VWS V14.00,2013-09-29 22:35:00,
2013-09-29 15:40:00,69.5,27.3,30.05,SW,215,33.0,33.0,20,0.00,,---,0.00,VWS V14.00,2013-09-29 22:40:00,
2013-09-29 15:45:00,69.3,27.1,30.05,SW,227,18.0,38.0,20,0.00,,---,0.00,VWS V14.00,2013-09-29 22:45:00,
2013-09-29 15:50:00,70.1,27.8,30.05,SW,227,33.0,38.0,20,0.00,,---,0.00,VWS V14.00,2013-09-29 22:50:00,
2013-09-29 16:05:00,71.1,27.4,30.05,SW,217,26.0,35.0,20,0.00,,---,0.00,VWS V14.00,2013-09-29 23:05:00,
2013-09-29 16:10:00,70.8,27.2,30.05,SSW,209,28.0,37.0,20,0.00,,---,0.00,VWS V14.00,2013-09-29 23:10:00,
2013-09-29 16:15:00,70.7,27.1,30.05,SW,219,28.0,37.0,20,0.00,,---,0.00,VWS V14.00,2013-09-29 23:15:00,
2013-09-29 16:20:00,70.6,27.0,30.06,SW,230,16.0,36.0,20,0.00,,---,0.00,VWS V14.00,2013-09-29 23:20:00,
2013-09-29 16:25:00,70.8,27.2,30.05,SW,218,25.0,37.0,20,0.00,,---,0.00,VWS V14.00,2013-09-29 23:25:00,
2013-09-29 16:30:00,70.9,27.2,30.05,SW,214,20.0,36.0,20,0.00,,---,0.00,VWS V14.00,2013-09-29 23:30:00,
2013-09-29 16:35:00,70.5,26.9,30.05,SSW,210,28.0,35.0,20,0.00,,---,0.00,VWS V14.00,2013-09-29 23:35:00,
2013-09-29 16:40:00,70.8,27.2,30.06,SW,217,18.0,34.0,20,0.00,,---,0.00,VWS V14.00,2013-09-29 23:40:00,
2013-09-29 16:45:00,70.5,26.9,30.06,SW,230,24.0,31.0,20,0.00,,---,0.00,VWS V14.00,2013-09-29 23:45:00,
2013-09-29 16:50:00,70.2,26.7,30.06,SW,217,21.0,35.0,20,0.00,,---,0.00,VWS V14.00,2013-09-29 23:50:00,
2013-09-29 16:55:00,70.1,26.6,30.05,SW,224,28.0,38.0,20,0.00,,---,0.00,VWS V14.00,2013-09-29 23:55:00,
2013-09-29 17:00:00,69.9,27.6,30.05,SSW,213,27.0,31.0,20,0.00,,---,0.00,VWS V14.00,2013-09-30 00:00:00,
2013-09-29 17:05:00,69.0,26.9,30.06,SW,225,30.0,33.0,20,0.00,,---,0.00,VWS V14.00,2013-09-30 00:05:00,
2013-09-29 17:10:00,68.9,26.8,30.05,SW,227,30.0,31.0,20,0.00,,---,0.00,VWS V14.00,2013-09-30 00:10:00,
2013-09-29 17:15:00,68.7,26.6,30.05,WSW,250,24.0,33.0,20,0.00,,---,0.00,VWS V14.00,2013-09-30 00:15:00,
2013-09-29 17:20:00,69.0,26.9,30.05,SSW,207,36.0,36.0,20,0.00,,---,0.00,VWS V14.00,2013-09-30 00:20:00,
2013-09-29 17:25:00,69.1,27.0,30.05,SW,223,24.0,36.0,20,0.00,,---,0.00,VWS V14.00,2013-09-30 00:25:00,
2013-09-29 17:30:00,68.6,26.6,30.05,SSW,205,36.0,37.0,20,0.00,,---,0.00,VWS V14.00,2013-09-30 00:30:00,
2013-09-29 17:35:00,68.1,26.1,30.05,SW,227,24.0,36.0,20,0.00,,---,0.00,VWS V14.00,2013-09-30 00:35:00,
2013-09-29 17:40:00,68.2,26.2,30.05,SW,223,26.0,33.0,20,0.00,,---,0.00,VWS V14.00,2013-09-30 00:40:00,
2013-09-29 17:45:00,67.8,25.9,30.05,SW,221,31.0,31.0,20,0.00,,---,0.00,VWS V14.00,2013-09-30 00:45:00,
2013-09-29 17:55:00,67.4,26.7,30.06,SW,232,25.0,33.0,22,0.00,,---,0.00,VWS V14.00,2013-09-30 00:55:00,
2013-09-29 18:00:00,67.0,26.4,30.05,SSW,209,15.0,29.0,22,0.00,,---,0.00,VWS V14.00,2013-09-30 01:00:00,
2013-09-29 18:05:00,66.5,26.0,30.05,SW,217,27.0,38.0,22,0.00,,---,0.00,VWS V14.00,2013-09-30 01:05:00,
2013-09-29 18:15:00,65.5,26.2,30.05,SW,216,20.0,30.0,22,0.00,,---,0.00,VWS V14.00,2013-09-30 01:15:00,
2013-09-29 18:20:00,65.3,26.0,30.05,SSW,211,24.0,32.0,22,0.00,,---,0.00,VWS V14.00,2013-09-30 01:20:00,
2013-09-29 18:25:00,64.6,27.5,30.05,SSW,212,29.0,29.0,24,0.00,,---,0.00,VWS V14.00,2013-09-30 01:25:00,
2013-09-29 18:30:00,64.2,27.2,30.06,SW,223,23.0,31.0,24,0.00,,---,0.00,VWS V14.00,2013-09-30 01:30:00,
2013-09-29 18:35:00,63.7,27.7,30.05,SSW,211,14.0,26.0,26,0.00,,---,0.00,VWS V14.00,2013-09-30 01:35:00,
2013-09-29 18:40:00,63.4,27.5,30.05,SW,216,26.0,30.0,26,0.00,,---,0.00,VWS V14.00,2013-09-30 01:40:00,
2013-09-29 18:45:00,63.2,28.2,30.05,SW,215,22.0,27.0,26,0.00,,---,0.00,VWS V14.00,2013-09-30 01:45:00,
2013-09-29 18:50:00,62.9,28.0,30.06,SW,223,11.0,25.0,26,0.00,,---,0.00,VWS V14.00,2013-09-30 01:50:00,
2013-09-29 18:55:00,62.6,27.7,30.06,SW,214,14.0,24.0,26,0.00,,---,0.00,VWS V14.00,2013-09-30 01:55:00,
2013-09-29 19:00:00,62.3,27.5,30.06,SW,214,21.0,26.0,26,0.00,,---,0.00,VWS V14.00,2013-09-30 02:00:00,
2013-09-29 19:05:00,62.1,27.3,30.06,SSW,207,18.0,23.0,26,0.00,,---,0.00,VWS V14.00,2013-09-30 02:05:00,
2013-09-29 19:10:00,61.8,27.9,30.06,SSW,198,11.0,21.0,28,0.00,,---,0.00,VWS V14.00,2013-09-30 02:10:00,
2013-09-29 19:15:00,61.5,27.7,30.06,SSW,198,7.0,19.0,28,0.00,,---,0.00,VWS V14.00,2013-09-30 02:15:00,
2013-09-29 19:20:00,61.3,27.5,30.06,South,182,12.0,22.0,28,0.00,,---,0.00,VWS V14.00,2013-09-30 02:20:00,
2013-09-29 19:25:00,61.1,27.3,30.06,South,188,24.0,24.0,28,0.00,,---,0.00,VWS V14.00,2013-09-30 02:25:00,
2013-09-29 19:30:00,61.0,28.1,30.06,SSW,198,10.0,24.0,28,0.00,,---,0.00,VWS V14.00,2013-09-30 02:30:00,
2013-09-29 19:35:00,60.8,27.9,30.06,South,185,10.0,21.0,28,0.00,,---,0.00,VWS V14.00,2013-09-30 02:35:00,
2013-09-29 19:40:00,60.6,28.6,30.06,South,191,21.0,24.0,30,0.00,,---,0.00,VWS V14.00,2013-09-30 02:40:00,
2013-09-29 19:45:00,60.5,28.5,30.06,SSW,211,15.0,26.0,30,0.00,,---,0.00,VWS V14.00,2013-09-30 02:45:00,
2013-09-29 19:50:00,60.4,28.4,30.06,SSE,163,14.0,30.0,30,0.00,,---,0.00,VWS V14.00,2013-09-30 02:50:00,
2013-09-29 19:55:00,60.3,28.4,30.06,South,175,11.0,30.0,30,0.00,,---,0.00,VWS V14.00,2013-09-30 02:55:00,
2013-09-29 20:00:00,60.3,28.4,30.06,SSW,194,14.0,32.0,30,0.00,,---,0.00,VWS V14.00,2013-09-30 03:00:00,
2013-09-29 20:05:00,60.1,29.0,30.06,SSW,195,16.0,27.0,30,0.00,,---,0.00,VWS V14.00,2013-09-30 03:05:00,
2013-09-29 20:10:00,60.0,28.9,30.06,South,186,14.0,28.0,30,0.00,,---,0.00,VWS V14.00,2013-09-30 03:10:00,
2013-09-29 20:15:00,59.9,28.8,30.06,SSE,168,16.0,28.0,30,0.00,,---,0.00,VWS V14.00,2013-09-30 03:15:00,
2013-09-29 20:20:00,59.9,28.8,30.06,South,186,20.0,29.0,30,0.00,,---,0.00,VWS V14.00,2013-09-30 03:20:00,
2013-09-29 20:25:00,59.8,28.7,30.06,SSW,200,19.0,31.0,30,0.00,,---,0.00,VWS V14.00,2013-09-30 03:25:00,
2013-09-29 20:30:00,59.7,28.6,30.06,South,187,19.0,30.0,30,0.00,,---,0.00,VWS V14.00,2013-09-30 03:30:00,
2013-09-29 20:35:00,59.5,29.3,30.06,South,177,23.0,26.0,32,0.00,,---,0.00,VWS V14.00,2013-09-30 03:35:00,
2013-09-29 20:40:00,59.4,29.2,30.05,South,182,20.0,26.0,32,0.00,,---,0.00,VWS V14.00,2013-09-30 03:40:00,
2013-09-29 20:45:00,59.3,29.1,30.05,South,191,16.0,29.0,32,0.00,,---,0.00,VWS V14.00,2013-09-30 03:45:00,
2013-09-29 20:55:00,59.2,29.0,30.06,South,169,10.0,24.0,32,0.00,,---,0.00,VWS V14.00,2013-09-30 03:55:00,
2013-09-29 21:00:00,59.0,28.8,30.06,South,184,21.0,30.0,32,0.00,,---,0.00,VWS V14.00,2013-09-30 04:00:00,
2013-09-29 21:05:00,59.0,28.8,30.06,South,175,9.0,28.0,32,0.00,,---,0.00,VWS V14.00,2013-09-30 04:05:00,
2013-09-29 21:10:00,59.0,28.8,30.06,South,183,15.0,23.0,32,0.00,,---,0.00,VWS V14.00,2013-09-30 04:10:00,
2013-09-29 21:15:00,59.0,28.8,30.06,SSW,196,18.0,33.0,32,0.00,,---,0.00,VWS V14.00,2013-09-30 04:15:00,
2013-09-29 21:20:00,59.0,28.8,30.05,South,183,25.0,27.0,32,0.00,,---,0.00,VWS V14.00,2013-09-30 04:20:00,
2013-09-29 21:25:00,59.0,28.8,30.06,South,184,13.0,27.0,32,0.00,,---,0.00,VWS V14.00,2013-09-30 04:25:00,
2013-09-29 21:35:00,59.0,28.8,30.07,South,187,18.0,27.0,32,0.00,,---,0.00,VWS V14.00,2013-09-30 04:35:00,
2013-09-29 21:40:00,59.0,28.0,30.06,SSW,194,19.0,28.0,30,0.00,,---,0.00,VWS V14.00,2013-09-30 04:40:00,
2013-09-29 21:45:00,58.9,28.0,30.07,South,179,18.0,29.0,30,0.00,,---,0.00,VWS V14.00,2013-09-30 04:45:00,
2013-09-29 21:50:00,59.0,28.0,30.07,South,177,24.0,29.0,30,0.00,,---,0.00,VWS V14.00,2013-09-30 04:50:00,
2013-09-29 21:55:00,59.0,28.0,30.07,SSW,196,14.0,24.0,30,0.00,,---,0.00,VWS V14.00,2013-09-30 04:55:00,
2013-09-29 22:00:00,59.0,27.2,30.07,South,187,24.0,26.0,30,0.00,,---,0.00,VWS V14.00,2013-09-30 05:00:00,
2013-09-29 22:05:00,59.0,27.2,30.06,SSW,198,10.0,29.0,30,0.00,,---,0.00,VWS V14.00,2013-09-30 05:05:00,
2013-09-29 22:10:00,59.0,27.2,30.06,South,187,21.0,29.0,30,0.00,,---,0.00,VWS V14.00,2013-09-30 05:10:00,
2013-09-29 22:15:00,59.0,27.2,30.06,SSW,207,14.0,27.0,30,0.00,,---,0.00,VWS V14.00,2013-09-30 05:15:00,
2013-09-29 22:20:00,59.0,27.2,30.06,SSW,196,23.0,27.0,30,0.00,,---,0.00,VWS V14.00,2013-09-30 05:20:00,
2013-09-29 22:25:00,58.9,28.0,30.06,SSW,195,28.0,28.0,30,0.00,,---,0.00,VWS V14.00,2013-09-30 05:25:00,
2013-09-29 22:30:00,58.9,27.1,30.06,South,186,24.0,30.0,30,0.00,,---,0.00,VWS V14.00,2013-09-30 05:30:00,
2013-09-29 22:35:00,58.8,27.0,30.07,SSW,194,21.0,29.0,30,0.00,,---,0.00,VWS V14.00,2013-09-30 05:35:00,
2013-09-29 22:40:00,58.7,27.0,30.06,SSW,199,18.0,33.0,30,0.00,,---,0.00,VWS V14.00,2013-09-30 05:40:00,
2013-09-29 22:45:00,58.4,26.7,30.07,SSW,192,15.0,25.0,30,0.00,,---,0.00,VWS V14.00,2013-09-30 05:45:00,
2013-09-29 22:55:00,58.5,26.8,30.07,SSW,202,20.0,28.0,30,0.00,,---,0.00,VWS V14.00,2013-09-30 05:55:00,
2013-09-29 23:00:00,58.6,26.9,30.07,SSW,198,18.0,29.0,30,0.00,,---,0.00,VWS V14.00,2013-09-30 06:00:00,
2013-09-29 23:05:00,58.5,26.8,30.07,SSW,204,18.0,28.0,30,0.00,,---,0.00,VWS V14.00,2013-09-30 06:05:00,
2013-09-29 23:10:00,58.4,26.7,30.07,SSW,211,15.0,30.0,30,0.00,,---,0.00,VWS V14.00,2013-09-30 06:10:00,
2013-09-29 23:15:00,58.3,26.6,30.07,SSW,199,16.0,28.0,30,0.00,,---,0.00,VWS V14.00,2013-09-30 06:15:00,
2013-09-29 23:20:00,58.4,26.7,30.07,South,176,18.0,32.0,30,0.00,,---,0.00,VWS V14.00,2013-09-30 06:20:00,
2013-09-29 23:25:00,58.4,26.7,30.06,SSW,211,18.0,33.0,30,0.00,,---,0.00,VWS V14.00,2013-09-30 06:25:00,
2013-09-29 23:30:00,58.3,26.6,30.06,SSW,204,10.0,34.0,30,0.00,,---,0.00,VWS V14.00,2013-09-30 06:30:00,
2013-09-29 23:35:00,58.2,26.5,30.06,South,184,15.0,26.0,30,0.00,,---,0.00,VWS V14.00,2013-09-30 06:35:00,
2013-09-29 23:40:00,58.3,27.4,30.06,SSW,195,16.0,29.0,30,0.00,,---,0.00,VWS V14.00,2013-09-30 06:40:00,
2013-09-29 23:45:00,58.4,26.7,30.06,SSW,192,19.0,28.0,30,0.00,,---,0.00,VWS V14.00,2013-09-30 06:45:00,
2013-09-29 23:50:00,58.3,27.4,30.06,SSW,206,11.0,29.0,30,0.00,,---,0.00,VWS V14.00,2013-09-30 06:50:00,
2013-09-29 23:55:00,58.3,27.4,30.06,SSW,196,12.0,27.0,30,0.00,,---,0.00,VWS V14.00,2013-09-30 06:55:00,